Regional Weather Roundup
Issued by NWS State College, PA

Home | Current Version | Previous Version | Text Only | Print | Product List | Glossary On
Versions: 1 2 3 4 5 6 7 8 9 10 11 12 13 14 15 16 17 18 19 20 21 22 23 24 25 26 27 28 29 30 31 32 33 34 35 36 37 38 39 40 41 42 43 44 45 46 47 48 49 50
000
ASUS41 KCTP 170910
RWRCTP

REGIONAL WEATHER ROUNDUP
NATIONAL WEATHER SERVICE STATE COLLEGE PA
500 AM EDT WED SEP 17 2014

Note: "fair" indicates few or no clouds below 12,000 feet with no
significant weather and/or obstructions to visibility.

* = STATION THAT DOES NOT REPORT PRECIPITATION /E.G. RAIN...SNOW...ETC/
    THUNDER OR FOG.

PAZ002>004-007>009-013>016-020>023-029>032-171000-
WESTERN PENNSYLVANIA

CITY           SKY/WX    TMP DP  RH WIND       PRES   REMARKS
ERIE           CLOUDY    51  46  83 S6        30.06S
MEADVILLE      CLEAR     46  44  93 S5        30.07S
FRANKLIN*      MOCLDY    43  39  87 S3        30.09R VSB 3/4
NEW CASTLE     PTSUNNY   45  45 100 CALM      30.09S FOG
BEAVER COUNTY  NOT AVBL
BUTLER*        MOCLDY    48  46  93 CALM      30.09S
PITTSBURGH INT PTCLDY    51  49  92 CALM      30.07F
PITTSBURGH     CLEAR     51  46  83 CALM      30.07R
INDIANA*       CLOUDY    48  46  93 CALM      30.11S
LATROBE        PTCLDY    45  45 100 CALM      30.08S FOG
WASHINGTON CO* CLOUDY    43  43 100 CALM      30.08S
$$

PAZ004>006-010>012-017>019-024>028-033>037-041-042-045-046-049>053-171000-
CENTRAL PENNSYLVANIA

CITY           SKY/WX    TMP DP  RH WIND       PRES   REMARKS
BRADFORD       PTCLDY    38  36  92 CALM      30.07S
DUBOIS         CLOUDY    47  45  93 SE3       30.06F
CLEARFIELD     MOCLDY    46  44  93 CALM      30.08S
JOHNSTOWN      CLOUDY    48  46  93 CALM      30.08S
ALTOONA        CLEAR     44  44 100 S5        30.08S FOG
STATE COLLEGE  MOCLDY    47  47  97 CALM      30.07S
WILLIAMSPORT   CLOUDY    49  47  93 NW5       30.07S
SELINSGROVE    PTCLDY    50  48  93 CALM      30.07S
FT INDIANTOWN  CLOUDY    49  49 100 CALM      30.05S
CAPITAL CITY   CLEAR     50  48  93 SW6       30.06R
HARRISBURG     PTCLDY    54  50  86 N5        30.05R
YORK           PTCLDY    44  42  93 CALM      30.05S
$$

PAZ038>040-043-044-047-048-054-055-060>062-067>071-171000-
EASTERN PENNSYLVANIA

CITY           SKY/WX    TMP DP  RH WIND       PRES   REMARKS
SCRANTON       CLEAR     44  42  93 E5        30.06S
MOUNT POCONO   PTCLDY    39  36  89 CALM      30.06R FOG
ALLENTOWN      CLEAR     47  45  93 CALM      30.05S
QUAKERTOWN*    SUNNY     45  45 100 CALM      30.05S
READING        CLEAR     52  49  89 CALM      30.04S
LANCASTER      PTCLDY    51  48  89 CALM      30.05R
COATESVILLE    CLOUDY    55  50  82 W6        30.05S
POTTSTOWN      CLOUDY    53  51  93 CALM      30.06R
BLUE BELL      CLOUDY    50  50 100 CALM      30.04R
DOYLESTOWN     PTCLDY    49 N/A N/A CALM      30.04R
WILLOW GROVE   NOT AVBL
NORTH PHILA    CLEAR     54  48  80 CALM      30.05R
PHILADELPHIA   PTCLDY    56  50  80 N5        30.04R
$$


USA.gov is the U.S. government's official web portal to all federal, state and local government web resources and services.